Location: Newark
(41.9364°N, 2.8061°E)
Time: 07:57:40
(UTC+00:00)

A-11 Canister half - Pass Details

Date: 22 February 2020
Orbit: 1516 x 1683 km, 47.2° (Epoch: 07 April)

Event Time Altitude Azimuth Distance (km) Brightness Sun altitude
Rises 22:00:02 0° 297° (WNW) 4,803 12.2 -48.4°
Reaches altitude 10° 22:03:15 10° 293° (WNW) 3,793 11.5 -48.9°
Enters shadow 22:07:59 32° 280° (W) 2,439 10.2 -49.5°
